Regional Weather Roundup
Issued by NWS Sterling, VA

Home | Current Version | Previous Version | Text Only | Print | Product List | Glossary Off
Versions: 1 2 3 4 5 6 7 8 9 10 11 12 13 14 15 16 17 18 19 20 21 22 23 24 25 26 27 28 29 30 31 32 33 34 35 36 37 38 39 40 41 42 43 44 45 46 47 48 49 50

000
ASUS41 KLWX 300410
RWRLWX

REGIONAL WEATHER ROUNDUP
NATIONAL WEATHER SERVICE BALTIMORE MD/WASHINGTON DC
1200 AM EDT MON MAR 30 2015

Note: "FAIR" indicates few or no clouds below 12,000 feet
with no significant weather and/or obstructions to visibility.
 TC=TEMPERATURE CELSIUS

 * =Non NWS site. Station does not report precipitation (e.g. rain,
    snow, etc.), thunder, or fog.

DCZ001-MDZ009-015-VAZ040>042-051-053>054-300500-
WASHINGTON METRO

CITY           SKY/WX    TMP DP  RH WIND       PRES   REMARKS
WASHINGTON NAT CLOUDY    43  19  38 S12       30.16R
DULLES         CLOUDY    42   8  24 S9G17     30.11F
ANDREWS AFB    CLOUDY    37  14  40 S10       30.14S
FT BELVOIR     CLOUDY    41  14  32 SE7       30.15S
QUANTICO       CLOUDY    45  19  35 S15       30.16F
COLLEGE PARK*  CLOUDY    41  10  28 CALM      30.15R
LEESBURG*      CLOUDY    41  14  33 S12       30.10F
MANASSAS*      CLOUDY    43  10  26 S9        30.13F
GAITHERSBURG*  CLOUDY    39  10  30 S7        30.15F

$$

MDZ006>007-011-014-300500-
BALTIMORE METRO

CITY           SKY/WX    TMP DP  RH WIND       PRES   REMARKS
BWI AIRPORT    CLOUDY    37  13  37 VRB3      30.14S
MARTIN STATE   CLOUDY    39  28  65 SE10      30.18R
ANNAPOLIS      CLOUDY    39  27  62 S13       30.16R

$$

MDZ012-015-019>023-300500-
MARYLAND EASTERN SHORE

CITY           SKY/WX    TMP DP  RH WIND       PRES   REMARKS
OCEAN CITY     PTCLDY    35  25  66 SW6       30.21F
SALISBURY      PTCLDY    30  16  56 S5        30.20F
BAY BRIDGE AP*   N/A     37  25  60 S12       30.17R
CAMBRIDGE*     MOCLDY    36  27  69 S7        30.17F
EASTON*        MOCLDY    38  23  55 S8        30.21S

$$

MDZ017>025-300500-
SOUTHERN MARYLAND

CITY           SKY/WX    TMP DP  RH WIND       PRES   REMARKS
PATUXENT RIVER MOCLDY    37  23  56 S7        30.18F
ST INIGOES     MOCLDY    39  23  52 S8        30.18F
LEONARDTOWN*   MOCLDY    36  23  60 S3        30.20R

$$

MDZ003>005-300500-
NORTH CENTRAL MARYLAND

CITY           SKY/WX    TMP DP  RH WIND       PRES   REMARKS
FREDERICK*     CLOUDY    41   1  19 S8        30.12F
HAGERSTOWN APT CLOUDY    42   7  23 S12       30.02F
WESTMINSTER*   CLOUDY    37   1  22 S10G16    30.09S

$$

MDZ501>502-300500-
WESTERN MARYLAND

CITY           SKY/WX    TMP DP  RH WIND       PRES   REMARKS
OAKLAND*       CLOUDY    34  32  93 CALM      29.92F
CUMBERLAND*    CLOUDY    43  27  52 W10G23    30.06S

$$

VAZ025>031-300500-
SHENANDOAH VALLEY

CITY           SKY/WX    TMP DP  RH WIND       PRES   REMARKS
WINCHESTER*    CLOUDY    43   0  16 S8        30.04F
FRONT ROYAL*   CLOUDY    43  10  26 S6        30.04F
LURAY*         CLOUDY    45  14  29 SW8       30.05F
NEW MARKET*    MOCLDY    43  12  28 SW6       30.05F
STAUNTON*      MOCLDY    43   9  24 S7        30.08F
WAYNESBORO*    FAIR      42  10  26 SW3       30.07S

$$

WVZ021-048>050-054>055-300500-
EASTERN WEST VIRGINIA PANHANDLE

CITY           SKY/WX    TMP DP  RH WIND       PRES   REMARKS
MARTINSBURG    CLOUDY    44   9  23 S10       30.04F
PETERSBURG*    CLOUDY    47   2  15 S10       29.99F

$$

VAZ036>039-050-300500-
CENTRAL FOOTHILLS

CITY           SKY/WX    TMP DP  RH WIND       PRES   REMARKS
CHARLOTTESVILL CLOUDY    43  11  27 S15       30.11F
CULPEPER*      CLOUDY    45  10  24 S8        30.13S
ORANGE*        CLOUDY    43  12  28 S9        30.14S
GORDONSVILLE*  CLOUDY    41  17  38 S3        30.12F
WARRENTON*     MOCLDY    43  20  39 S6        30.12S

$$

VAZ055>057-300500-
NORTH AND CENTRAL PIEDMONT

CITY           SKY/WX    TMP DP  RH WIND       PRES   REMARKS
FREDERICKSBRG* CLOUDY    43  13  29 S8        30.15S
STAFFORD*      CLOUDY    41   6  23 S5        30.18F

$$

NCZ024-NYZ072-PAZ021-071-VAZ022-071-300500-
OTHER REGIONAL OBSERVATIONS

CITY           SKY/WX    TMP DP  RH WIND       PRES   REMARKS
NEW YORK CITY  CLEAR     40  13  33 MISG      30.14F
PHILADELPHIA   CLOUDY    38  14  37 S9        30.15F
PITTSBURGH     FLURRIES  36  33  89 SW5       29.97S
ROANOKE        PTCLDY    44  13  28 CALM      30.12F
RICHMOND       CLOUDY    41  15  35 S9        30.18F
RALEIGH        PTCLDY    42  16  34 S10       30.23F

$$

ANZ530>537-300500-
MARINE OBSERVATIONS

STATION/POSITION TIME  TEMP    WIND        PRES
                       AIR SEA DIR/SP/G
                 (UTC) (F)     (DEG/KT/KT) (MB)
THOMAS PT LIGHT  0400                        N/A
BALT KEY BRIDGE  0300   38     150/ 11/ 12 1020.7F
COVE POINT       0300   37     190/ 16/ 18 1022.0F
LEWISETTA        0300   38 43              1022.3F
SOLOMONS ISLAND  0300      43                N/A
PINEY POINT      0300          190/ 15/ 16   N/A

$$



USA.gov is the U.S. government's official web portal to all federal, state and local government web resources and services.